Location: Holyhead Bay
(53.3667°N, 4.6667°W)
Time: 19:50:41
(UTC+00:00)

Cosmos 1151 Rocket - Pass Details

Date: 24 November 2020
Orbit: 593 x 615 km, 82.5° (Epoch: 17 January)

Event Time Altitude Azimuth Distance (km) Brightness Sun altitude
Rises 18:53:55 0° 192° (SSW) 2,842 6.7 -23.6°
Reaches altitude 10° 18:56:08 10° 193° (SSW) 1,941 5.8 -24.0°
Enters shadow 19:00:23 81° 270° (W) 614 3.0 -24.6°
